| time (UTC) | temp C | wind direction | speed KPH | gust KPH | rain 1hr cm | rain 24hr cm | rain mn cm | humidity % | barometer mb |
| 20260504023616 | 9 | 195 | 1.6 | 4.8 | 0.00 | 0.00 | 0.00 | 67 | 1013.3 |
| 20260504023117 | 9 | 195 | 1.6 | 4.8 | 0.00 | 0.00 | 0.00 | 67 | 1013.3 |
| 20260504022617 | 9 | 195 | 1.6 | 4.8 | 0.00 | 0.00 | 0.00 | 67 | 1013.4 |
| 20260504022117 | 9 | 195 | 1.6 | 4.8 | 0.00 | 0.00 | 0.00 | 67 | 1013.3 |
| 20260504021616 | 9 | 220 | 4.8 | 4.8 | 0.00 | 0.00 | 0.00 | 68 | 1013.2 |
| 20260504020616 | 9 | 220 | 4.8 | 4.8 | 0.00 | 0.00 | 0.00 | 68 | 1013.2 |
| 20260504020117 | 9 | 190 | 3.2 | 4.8 | 0.00 | 0.00 | 0.00 | 66 | 1013.2 |
| 20260504015116 | 9 | 181 | 3.2 | 4.8 | 0.00 | 0.00 | 0.00 | 66 | 1013.3 |
| 20260504014616 | 9 | 181 | 3.2 | 4.8 | 0.00 | 0.00 | 0.00 | 66 | 1013.2 |
| 20260504013616 | 9 | 181 | 3.2 | 4.8 | 0.00 | 0.00 | 0.00 | 66 | 1013.3 |
| 20260504013117 | 9 | 181 | 3.2 | 4.8 | 0.00 | 0.00 | 0.00 | 66 | 1013.2 |
| 20260504012117 | 9 | 181 | 3.2 | 14.5 | 0.00 | 0.00 | 0.00 | 66 | 1013.4 |
| 20260504011616 | 9 | 231 | 9.7 | 14.5 | 0.00 | 0.00 | 0.00 | 66 | 1013.5 |
| 20260504011117 | 10 | 161 | 8.0 | 9.7 | 0.00 | 0.00 | 0.00 | 65 | 1013.3 |
| 20260504010116 | 10 | 161 | 8.0 | 9.7 | 0.00 | 0.00 | 0.00 | 65 | 1013.4 |
| 20260504005616 | 10 | 161 | 6.4 | 9.7 | 0.00 | 0.00 | 0.00 | 65 | 1013.4 |
| 20260504005116 | 10 | 224 | 4.8 | 9.7 | 0.00 | 0.00 | 0.00 | 64 | 1013.5 |
| 20260504004116 | 10 | 254 | 9.7 | 20.9 | 0.00 | 0.00 | 0.00 | 64 | 1013.4 |
| 20260504003117 | 10 | 230 | 4.8 | 16.1 | 0.00 | 0.00 | 0.00 | 63 | 1013.3 |
| 20260504002117 | 10 | 214 | 6.4 | 14.5 | 0.00 | 0.00 | 0.00 | 62 | 1013.7 |
| 20260504000617 | 10 | 330 | 11.3 | 19.3 | 0.00 | 0.00 | 0.00 | 60 | 1013.6 |
| 20260503235617 | 11 | 230 | 9.7 | 22.5 | 0.00 | 0.00 | 0.00 | 56 | 1013.4 |
| 20260503234616 | 13 | 249 | 9.7 | 22.5 | 0.00 | 0.00 | 0.00 | 44 | 1012.9 |
| 20260503233616 | 13 | 177 | 8.0 | 12.9 | 0.00 | 0.00 | 0.00 | 42 | 1012.8 |
| 20260503233116 | 13 | 188 | 4.8 | 9.7 | 0.00 | 0.00 | 0.00 | 43 | 1013.1 |
| 20260503232616 | 13 | 187 | 4.8 | 9.7 | 0.00 | 0.00 | 0.00 | 43 | 1012.9 |
| 20260503231116 | 13 | 213 | 6.4 | 14.5 | 0.00 | 0.00 | 0.00 | 41 | 1013.1 |
| 20260503230616 | 13 | 217 | 6.4 | 14.5 | 0.00 | 0.00 | 0.00 | 41 | 1013.1 |
| 20260503230116 | 13 | 259 | 11.3 | 14.5 | 0.00 | 0.00 | 0.00 | 40 | 1013.1 |
| 20260503225616 | 13 | 259 | 9.7 | 14.5 | 0.00 | 0.00 | 0.00 | 40 | 1013.0 |
| 20260503225116 | 13 | 242 | 4.8 | 16.1 | 0.00 | 0.00 | 0.00 | 40 | 1013.2 |
| 20260503224617 | 13 | 224 | 6.4 | 25.7 | 0.00 | 0.00 | 0.00 | 41 | 1013.2 |
| 20260503224116 | 14 | 246 | 14.5 | 24.1 | 0.00 | 0.00 | 0.00 | 41 | 1013.1 |
| 20260503223616 | 14 | 246 | 14.5 | 24.1 | 0.00 | 0.00 | 0.00 | 41 | 1013.2 |
| 20260503223117 | 14 | 240 | 4.8 | 24.1 | 0.00 | 0.00 | 0.00 | 42 | 1013.2 |
| 20260503222116 | 14 | 224 | 6.4 | 25.7 | 0.00 | 0.00 | 0.00 | 41 | 1013.4 |
| 20260503221616 | 14 | 316 | 12.9 | 16.1 | 0.00 | 0.00 | 0.00 | 41 | 1013.4 |
| 20260503221116 | 14 | 316 | 12.9 | 16.1 | 0.00 | 0.00 | 0.00 | 41 | 1013.4 |
| 20260503220116 | 14 | 350 | 8.0 | 11.3 | 0.00 | 0.00 | 0.00 | 40 | 1013.3 |
| 20260503215616 | 14 | 180 | 6.4 | 14.5 | 0.00 | 0.00 | 0.00 | 40 | 1013.4 |
| 20260503215116 | 14 | 202 | 8.0 | 16.1 | 0.00 | 0.00 | 0.00 | 41 | 1013.5 |
| 20260503214616 | 14 | 230 | 6.4 | 16.1 | 0.00 | 0.00 | 0.00 | 40 | 1013.4 |
| 20260503213117 | 14 | 228 | 6.4 | 16.1 | 0.00 | 0.03 | 0.00 | 41 | 1013.4 |
| 20260503212616 | 14 | 234 | 4.8 | 11.3 | 0.00 | 0.03 | 0.00 | 41 | 1013.6 |
| 20260503212116 | 14 | 249 | 9.7 | 20.9 | 0.00 | 0.03 | 0.00 | 40 | 1013.5 |
| 20260503211617 | 14 | 238 | 11.3 | 16.1 | 0.00 | 0.03 | 0.00 | 40 | 1013.5 |
| 20260503211116 | 14 | 205 | 9.7 | 27.4 | 0.00 | 0.05 | 0.00 | 40 | 1013.6 |
| 20260503210116 | 15 | 227 | 9.7 | 19.3 | 0.00 | 0.05 | 0.00 | 40 | 1013.5 |
| 20260503205616 | 15 | 238 | 8.0 | 14.5 | 0.00 | 0.05 | 0.00 | 41 | 1013.7 |
| 20260503205116 | 15 | 179 | 8.0 | 20.9 | 0.00 | 0.05 | 0.00 | 40 | 1013.7 |
| 20260503204616 | 15 | 211 | 12.9 | 16.1 | 0.00 | 0.05 | 0.00 | 39 | 1013.8 |
| 20260503203616 | 14 | 217 | 9.7 | 24.1 | 0.00 | 0.05 | 0.00 | 40 | 1013.9 |
| 20260503203116 | 14 | 239 | 12.9 | 22.5 | 0.00 | 0.05 | 0.00 | 40 | 1014.0 |
| 20260503202616 | 14 | 203 | 11.3 | 33.8 | 0.00 | 0.05 | 0.00 | 40 | 1014.0 |
| 20260503202116 | 14 | 214 | 9.7 | 24.1 | 0.00 | 0.05 | 0.00 | 42 | 1013.9 |
| 20260503201116 | 15 | 231 | 8.0 | 14.5 | 0.00 | 0.05 | 0.00 | 41 | 1013.8 |
| 20260503200616 | 15 | 213 | 9.7 | 16.1 | 0.00 | 0.05 | 0.00 | 41 | 1014.0 |
| 20260503200116 | 15 | 265 | 8.0 | 14.5 | 0.00 | 0.05 | 0.00 | 40 | 1014.2 |
| 20260503195616 | 15 | 247 | 11.3 | 12.9 | 0.00 | 0.05 | 0.00 | 39 | 1014.1 |
| 20260503195116 | 15 | 267 | 8.0 | 12.9 | 0.00 | 0.05 | 0.00 | 40 | 1014.3 |
| 20260503194616 | 15 | 187 | 9.7 | 24.1 | 0.00 | 0.05 | 0.00 | 39 | 1014.4 |
| 20260503194116 | 15 | 245 | 12.9 | 24.1 | 0.00 | 0.05 | 0.00 | 39 | 1014.5 |
| 20260503193616 | 15 | 227 | 11.3 | 40.2 | 0.00 | 0.05 | 0.00 | 41 | 1014.5 |
| 20260503192617 | 15 | 241 | 9.7 | 22.5 | 0.00 | 0.05 | 0.00 | 40 | 1014.5 |
| 20260503192116 | 15 | 183 | 8.0 | 16.1 | 0.00 | 0.05 | 0.00 | 39 | 1014.7 |
| 20260503191616 | 15 | 227 | 12.9 | 22.5 | 0.00 | 0.05 | 0.00 | 38 | 1014.6 |
| 20260503191116 | 15 | 212 | 9.7 | 22.5 | 0.00 | 0.05 | 0.00 | 39 | 1014.8 |
| 20260503190116 | 15 | 307 | 4.8 | 22.5 | 0.00 | 0.05 | 0.00 | 41 | 1015.0 |
| 20260503185616 | 15 | 230 | 11.3 | 20.9 | 0.00 | 0.05 | 0.00 | 40 | 1015.2 |
| 20260503185116 | 15 | 197 | 9.7 | 20.9 | 0.00 | 0.05 | 0.00 | 39 | 1015.2 |
| 20260503184616 | 15 | 194 | 12.9 | 19.3 | 0.00 | 0.05 | 0.00 | 38 | 1015.2 |
| 20260503183616 | 15 | 249 | 8.0 | 16.1 | 0.00 | 0.05 | 0.00 | 42 | 1015.4 |
| 20260503183116 | 15 | 240 | 4.8 | 11.3 | 0.00 | 0.05 | 0.00 | 42 | 1015.4 |
| 20260503182617 | 15 | 53 | 9.7 | 22.5 | 0.00 | 0.05 | 0.00 | 40 | 1015.2 |
| 20260503182116 | 15 | 231 | 11.3 | 22.5 | 0.00 | 0.05 | 0.00 | 41 | 1015.5 |
| 20260503181616 | 13 | 125 | 6.4 | 12.9 | 0.00 | 0.05 | 0.00 | 39 | 1015.5 |
| 20260503181116 | 14 | 221 | 9.7 | 20.9 | 0.00 | 0.05 | 0.00 | 39 | 1015.7 |
| 20260503180616 | 14 | 175 | 14.5 | 20.9 | 0.00 | 0.05 | 0.00 | 40 | 1015.6 |
| 20260503180116 | 15 | 227 | 11.3 | 19.3 | 0.00 | 0.05 | 0.00 | 40 | 1015.7 |
| 20260503175116 | 14 | 234 | 12.9 | 19.3 | 0.00 | 0.05 | 0.00 | 41 | 1015.9 |
| 20260503174616 | 13 | 121 | 8.0 | 22.5 | 0.00 | 0.05 | 0.00 | 40 | 1015.8 |
| 20260503173616 | 14 | 238 | 8.0 | 16.1 | 0.00 | 0.05 | 0.00 | 43 | 1015.9 |
| 20260503172616 | 14 | 219 | 9.7 | 16.1 | 0.00 | 0.05 | 0.00 | 45 | 1016.0 |
| 20260503172116 | 13 | 201 | 9.7 | 14.5 | 0.00 | 0.05 | 0.00 | 49 | 1016.0 |
| 20260503171116 | 14 | 236 | 8.0 | 16.1 | 0.00 | 0.05 | 0.00 | 48 | 1016.3 |
| 20260503170615 | 13 | 232 | 8.0 | 16.1 | 0.00 | 0.05 | 0.00 | 47 | 1016.3 |
| 20260503160116 | 12 | 207 | 8.0 | 14.5 | 0.00 | 0.05 | 0.00 | 50 | 1017.1 |
| 20260503150616 | 11 | 201 | 8.0 | 16.1 | 0.00 | 0.05 | 0.00 | 54 | 1017.2 |
| 20260503140116 | 8 | 234 | 8.0 | 19.3 | 0.00 | 0.05 | 0.00 | 57 | 1017.6 |
| 20260503131116 | 6 | 204 | 9.7 | 12.9 | 0.00 | 0.05 | 0.00 | 60 | 1017.9 |
| 20260503130115 | 5 | 235 | 4.8 | 4.8 | 0.00 | 0.05 | 0.00 | 62 | 1017.9 |
| 20260503120116 | 2 | 232 | 4.8 | 9.7 | 0.00 | 0.05 | 0.00 | 71 | 1017.7 |
| 20260503110116 | 1 | 193 | 1.6 | 4.8 | 0.00 | 0.05 | 0.00 | 79 | 1017.3 |
| 20260503100115 | 0 | 171 | 3.2 | 3.2 | 0.00 | 0.05 | 0.00 | 79 | 1017.1 |